Location: Casas Las Ca�adas
(40.2860°N, 5.8799°W)
Time: 04:24:01
(UTC+00:00)

Daily predictions for brighter satellites

Satellite Brightness Start Highest point End
(mag) Time Altitude Azimuth Time Altitude Azimuth Time Altitude Azimuth
ADEOS II 4.3 02:23:37 10° NNE 02:25:23 21° NNE 02:25:23 21° NNE
SJ 16-02 4.4 02:57:48 10° NNE 02:59:49 13° ENE 03:01:49 10° E
USA 267 3.4 02:54:52 10° NE 03:00:27 66° NNE 03:00:27 66° NNE
CZ-2D R/B 4.4 02:59:09 10° N 03:00:07 15° NNW 03:00:07 15° NNW
Lacrosse 5 3.5 03:08:39 29° NNE 03:08:39 29° NNE 03:11:19 10° NE
Resurs 1-4 Rocket 4.4 03:06:13 10° NNW 03:07:01 13° NNW 03:07:01 13° NNW
Spot 4 Rocket 4.3 03:29:02 10° NNE 03:33:39 67° ENE 03:33:39 67° ENE
USA 234 3.9 03:28:27 10° ESE 03:34:44 52° NE 03:41:01 10° NW
MSX 4.2 03:30:48 10° NNE 03:36:33 61° ESE 03:37:57 47° SSE
Timation 1 Rocket 4.3 03:31:49 10° NNW 03:37:51 81° ENE 03:43:52 10° SSE
X-37B 3.6 03:42:02 17° ENE 03:42:02 17° ENE 03:43:00 10° ENE
Cosmos 1697 Rocket 3.8 03:43:20 30° NNW 03:43:20 30° NNW 03:47:04 10° N
BREEZE M DEB (TANK) 4.4 03:27:35 10° WNW 03:46:02 66° NNE 03:50:52 10° ESE
SL-8 R/B 4.4 03:45:53 47° N 03:46:17 48° NNE 03:50:54 10° E
Cosmos 1980 Rocket 2.4 03:47:24 56° NW 03:47:24 56° NW 03:52:27 10° NNE
Cosmos 921 Rocket 3.5 03:52:49 55° NE 03:52:49 55° NE 03:56:12 10° NNE
Cosmos 2322 Rocket 3.5 03:49:53 16° SSE 03:53:46 36° ESE 03:58:54 10° NE
Cosmos 2263 Rocket 2.9 03:50:52 10° NNW 03:56:25 54° ENE 04:01:58 10° SE
Cosmos 1934 Rocket 3.8 03:51:54 10° NNW 03:57:55 72° W 03:59:39 48° SSW
Cosmos 1812 3.2 04:01:20 60° ENE 04:01:20 60° ENE 04:04:46 10° NNE
SL-16 R/B 2.8 03:59:45 26° S 04:02:47 54° ESE 04:08:18 10° NNE
Celestis-02/Orion 38 4.4 03:58:01 10° SSE 04:03:19 83° WSW 04:08:31 10° NNW
Cosmos 1500 3.7 04:00:02 10° N 04:03:18 57° NNE 04:03:18 57° NNE
CZ-4C R/B 3.9 04:06:18 44° NNE 04:06:18 44° NNE 04:08:56 10° N
ADEOS II 3.9 04:04:24 10° NNW 04:06:19 17° NW 04:06:19 17° NW
Cosmos 1666 4.4 04:05:57 10° NNE 04:09:26 32° ENE 04:12:51 10° SE
ARIANE 5 R/B 3.5 04:08:06 10° N 04:11:42 31° NW 04:11:42 31° NW
Meteor 1-10 Rocket 4.3 04:09:30 23° S 04:13:17 83° E 04:19:10 10° N
Cosmos 2227 4.2 04:09:11 10° NNW 04:14:52 82° ENE 04:20:29 10° SSE
Cosmos 2228 Rocket 3.3 04:17:08 51° NW 04:17:08 51° NW 04:20:59 10° N
IDEFIX/ARIANE 42P 3.0 04:12:43 10° N 04:17:37 40° WNW 04:17:39 40° WNW
COSMOS 2441 4.4 04:14:54 10° N 04:19:45 61° WNW 04:20:46 49° WSW
ASTEX 1 4.2 04:16:56 10° NNW 04:20:50 34° WNW 04:20:50 34° WNW
CZ-2C R/B 2.7 04:16:41 10° NNE 04:21:50 72° ESE 04:26:51 11° S
SL-4 R/B 2.4 04:21:29 46° SSW 04:22:39 67° SE 04:27:23 10° ENE
IRIDIUM 106 4.3 04:18:36 10° N 04:23:51 88° E 04:29:04 10° S
Meteor 1-14 Rocket 4.4 04:18:52 10° NNW 04:24:07 44° W 04:25:03 40° WSW
Cosmos 1763 Rocket 3.6 04:21:19 23° S 04:24:40 80° ESE 04:30:00 10° NNE
Cosmos 1605 Rocket 3.9 04:18:25 10° NNW 04:24:47 70° W 04:31:07 10° S
Meteor 2-6 Rocket 4.2 04:25:49 32° SW 04:28:20 60° WNW 04:34:06 10° N
Cosmos 1869 Rocket 3.3 04:24:10 10° N 04:28:30 75° W 04:32:47 10° S
Meteor 1-5 Rocket 4.0 04:23:22 10° NNW 04:28:41 76° W 04:34:06 10° S
FALCON 9 DEB 3.0 04:30:09 71° SSW 04:30:26 79° SE 04:33:52 10° NE
Meteor 1-4 Rocket 2.3 04:33:51 61° W 04:33:54 62° W 04:37:23 10° N
CZ-2C R/B 3.8 04:32:58 10° N 04:35:35 28° NW 04:35:35 28° NW
Cosmos 44 4.4 04:38:02 23° NW 04:38:29 23° NW 04:42:10 10° N
SJ 16-02 1.2 04:34:29 10° NNW 04:38:49 62° WSW 04:43:08 10° S
Cosmos 1238 Rocket 4.5 04:34:15 10° NNW 04:40:05 35° W 04:42:52 24° SW
BREEZE-M DEB (TANK) 3.1 04:35:46 26° WSW 04:40:14 85° NNW 04:43:32 10° ENE
PSLV R/B 3.4 04:37:12 10° N 04:41:22 64° WNW 04:43:46 24° SSW
BREEZE-M DEB (TANK) 3.8 04:40:44 26° NW 04:41:55 34° N 04:47:52 10° ENE
USA 267 4.3 04:38:18 10° NE 04:43:52 31° NNW 04:47:47 17° WNW
H-2A R/B 2.3 04:39:45 10° S 04:43:55 46° W 04:48:13 10° NNW
ERBS 3.5 04:43:59 27° NW 04:44:11 27° NW 04:47:07 10° NNE
NOSS 3-3 (A) 4.5 04:44:08 27° W 04:46:44 40° NW 04:52:49 10° NNE
PAYLOAD A 3.9 04:42:12 10° N 04:46:47 55° WNW 04:50:06 18° SW
NOSS 3-3 (C) 4.5 04:44:18 27° W 04:46:52 40° NW 04:52:54 10° NNE
Cosmos 990 Rocket 3.9 04:45:05 10° NNW 04:50:17 75° WSW 04:55:29 10° S
Lacrosse 5 3.9 04:47:50 12° NW 04:50:24 16° NNW 04:53:33 10° NNE
Cosmos 540 Rocket 3.7 04:46:53 10° S 04:52:00 71° ESE 04:57:10 10° NNE
Cosmos 468 Rocket 4.2 04:49:29 21° SW 04:52:49 51° WNW 04:57:57 10° N
CZ-4B R/B 1.5 04:51:54 10° SSE 04:55:00 68° ENE 04:58:12 10° N
Landsat 5 4.2 04:52:00 10° SSW 04:56:05 34° W 05:00:11 10° NNW
Cosmos 1727 Rocket 4.1 04:50:57 10° SSW 04:57:09 55° W 05:03:22 10° N
DEBRIS 2.6 04:55:54 25° WNW 04:57:23 78° SW 05:03:41 10° SE
SL-19 R/B 4.5 04:56:27 10° N 05:01:06 75° WNW 05:05:07 10° SSW
Cosmos 2100 Rocket 4.0 04:54:52 10° N 05:01:18 89° WSW 05:07:38 10° S
ALOS 2.5 04:59:36 10° NNE 05:04:17 73° ESE 05:08:56 10° S
ATLAS 2AS CENTAUR R/B 3.6 04:56:59 10° NNW 05:04:18 55° NE 05:11:00 10° SE
ERS-2 2.5 05:00:54 10° S 05:04:21 41° W 05:07:51 10° NNW
Cosmos 1802 Rocket 4.2 05:00:05 10° N 05:06:19 75° E 05:12:34 10° SSE
CZ-4B R/B 4.4 05:02:39 10° NNE 05:07:01 69° ESE 05:11:27 10° S
Meteor 1-11 Rocket 3.8 05:01:24 10° NNW 05:07:01 55° W 05:12:29 10° S
ADEOS Rocket 3.1 05:00:18 10° S 05:07:13 68° WSW 05:13:27 10° NNW
Cosmos 1689 Rocket 3.9 05:05:16 10° SE 05:07:59 34° ENE 05:10:44 10° N
COSMO-SKYMED 1 4.2 05:06:31 10° SE 05:10:33 39° ENE 05:14:36 10° N
Cosmos 1484 Rocket 2.8 05:09:47 10° N 05:13:47 80° WNW 05:17:47 10° SSW
Meteor 1-27 Rocket 4.1 05:10:12 10° SSW 05:15:54 48° WNW 05:21:38 10° N
Cosmos 1459 Rocket 3.9 05:10:55 10° N 05:16:59 74° W 05:23:00 10° S
X-37B 0.8 05:14:19 14° WNW 05:17:00 67° NNE 05:20:10 10° ESE
USA 234 3.5 05:11:31 10° SSE 05:17:45 47° SW 05:24:00 10° WNW
Cosmos 1536 3.1 05:16:09 10° NNW 05:20:02 44° W 05:23:54 10° SSW
Cosmos 2123 Rocket 4.2 05:14:28 10° S 05:20:41 79° E 05:27:00 10° N
Cosmos 2360 Rocket 2.2 05:15:01 10° SSW 05:20:41 80° WNW 05:26:23 10° NNE
METEOR-M 4.2 05:15:56 10° NNE 05:21:19 87° ESE 05:26:40 10° SSW
PKM 4.1 05:19:15 10° NW 05:22:47 74° NE 05:27:12 10° SE
Meteor 1-31 Rocket 2.7 05:21:27 10° N 05:25:16 72° WNW 05:29:05 10° SSW
Cosmos 1898 Rocket 4.0 05:20:31 10° NW 05:25:22 39° WSW 05:30:14 10° S
Cosmos 1437 Rocket 2.7 05:23:19 10° S 05:27:06 90° E 05:30:56 10° N
PSLV R/B 4.4 05:23:45 10° SSE 05:27:44 64° ENE 05:31:47 10° N
SL-8 R/B 4.0 05:24:16 10° WNW 05:28:51 47° SW 05:33:24 10° SE
deb Chang Zheng 4 3.9 05:24:58 10° N 05:29:02 42° WNW 05:33:03 10° SW
Cosmos 1703 Rocket 4.5 05:26:57 10° S 05:31:09 53° E 05:35:22 10° NNE
Intercosmos 25 3.2 05:26:40 10° SSW 05:31:10 70° W 05:34:30 10° N
FENGYUN 3A 3.7 05:26:41 10° N 05:32:01 63° WNW 05:37:21 10° SSW
Cosmos 1908 Rocket 4.2 05:28:13 10° N 05:32:39 62° E 05:37:04 10° SSE
Cosmos 372 Rocket 4.1 05:27:49 10° NNW 05:32:59 81° ENE 05:38:05 10° SSE
Cosmos 1544 3.7 05:29:38 10° N 05:33:12 61° E 05:36:44 10° SSE
Cosmos 2208 Rocket 4.1 05:32:38 10° SW 05:37:47 55° WNW 05:42:54 10° N
Cosmos 2322 Rocket 3.0 05:32:44 10° WSW 05:37:47 32° WNW 05:42:54 10° N
Cosmos 2263 Rocket 3.4 05:35:50 10° NW 05:39:53 20° W 05:43:56 10° SW
Cosmos 1515 3.7 05:37:33 10° S 05:41:21 86° E 05:45:09 10° N
Cosmos 1844 4.1 05:36:39 10° NNW 05:42:13 68° ENE 05:47:44 10° SSE
Cosmos 2242 Rocket 3.5 05:39:49 10° S 05:44:12 79° W 05:48:38 10° N
Cosmos 1666 4.4 05:42:31 10° NW 05:44:39 15° W 05:46:47 10° WSW
Cosmos 1844 Rocket 2.8 05:40:43 10° NNW 05:46:23 89° NE 05:52:03 10° SSE
SL-16 R/B 3.4 05:42:46 10° WSW 05:47:13 23° NW 05:51:42 10° N
ATLAS CENTAUR R/B 3.8 05:43:07 10° NW 05:49:37 32° NNE 05:52:42 10° E
